Zacatecas Airport, Mexico

9:10 PM CDT on April 26, 2018 (GMT -0500)
Gen Leobardo C Ruiz International

Weather History for MMZC - June, 2013

Change the Weather History Date:

Sunday, June 23, 2013

  Actual Average Record
Temperature  
Mean Temperature 66 °F -  
Max Temperature 80 °F 77 °F 91 °F (2017)
Min Temperature 53 °F 54 °F 50 °F (2001)
Cooling Degree Days 2    
Growing Degree Days 16 (Base 50)    
Moisture  
Dew Point 45 °F    
Average Humidity 46    
Maximum Humidity 72    
Minimum Humidity 23    
Precipitation  
Precipitation 0.00 in - - ()
Sea Level Pressure  
Sea Level Pressure 30.24 in    
Wind  
Wind Speed 6 mph ()    
Max Wind Speed 21 mph    
Max Gust Speed -    
Visibility 10.0 miles    
Events      
Averages and records for this station are not official NWS values.
T = Trace of Precipitation, MM = Missing Value Source: Averaged Metar Reports

Daily Weather History Graph

Daily Weather History Graph

Search for Another Location

Airport or City:

Astronomy

Jun. 23, 2013 Rise Set
Actual Time 7:06 AM CDT 8:39 PM CDT
Civil Twilight 6:41 AM CDT 9:04 PM CDT
Nautical Twilight 6:11 AM CDT 9:34 PM CDT
Astronomical Twilight 5:39 AM CDT 10:06 PM CDT
Moon 9:03 PM CDT (6/23) 7:19 AM CDT (6/23)
Length of Visible Light 14h 22m
Length of Day
13h 32m
Full, 100% of the Moon is Illuminated
Jun 23
Full
Jun 29
Last Quarter
Jul 8
New
Jul 15
First Quarter
Jul 22
Full

Hourly Weather History & Observations

Time (CDT) Temp. Dew Point Humidity Pressure Visibility Wind Dir Wind Speed Gust Speed Precip Events Conditions
12:43 AM 64.4 °F 48.2 °F 56% 30.29 in 10.0 mi SE 13.8 mph - N/A   Mostly Cloudy
1:43 AM 62.6 °F 48.2 °F 59% 30.29 in 10.0 mi SE 9.2 mph - N/A   Mostly Cloudy
2:43 AM 59.0 °F 48.2 °F 67% 30.28 in 10.0 mi South 5.8 mph - N/A   Mostly Cloudy
3:44 AM 60.8 °F 48.2 °F 63% 30.28 in 10.0 mi Calm Calm - N/A   Mostly Cloudy
5:03 AM 57.2 °F 46.4 °F 67% 30.26 in 10.0 mi South 4.6 mph - N/A   Mostly Cloudy
5:43 AM 57.2 °F 46.4 °F 67% 30.25 in 10.0 mi Calm Calm - N/A   Mostly Cloudy
6:40 AM 55.4 °F 44.6 °F 67% 30.26 in 10.0 mi Calm Calm - N/A   Scattered Clouds
7:43 AM 53.6 °F 44.6 °F 72% 30.28 in 10.0 mi Calm Calm - N/A   Mostly Cloudy
8:43 AM 57.2 °F 46.4 °F 67% 30.29 in 10.0 mi Calm Calm - N/A   Mostly Cloudy
9:43 AM 62.6 °F 48.2 °F 59% 30.29 in 10.0 mi Calm Calm - N/A   Scattered Clouds
10:43 AM 66.2 °F 48.2 °F 52% 30.29 in 10.0 mi Calm Calm - N/A   Scattered Clouds
12:04 PM 71.6 °F 48.2 °F 43% 30.28 in 10.0 mi Calm Calm - N/A   Scattered Clouds
12:42 PM 75.2 °F 48.2 °F 38% 30.28 in 10.0 mi Calm Calm - N/A   Partly Cloudy
1:43 PM 77.0 °F 44.6 °F 32% 30.25 in 10.0 mi ESE 13.8 mph - N/A   Scattered Clouds
2:48 PM 78.8 °F 46.4 °F 32% 30.24 in 10.0 mi ENE 11.5 mph - N/A   Mostly Cloudy
3:50 PM 80.6 °F 42.8 °F 26% 30.21 in 10.0 mi East 12.7 mph - N/A   Mostly Cloudy
4:46 PM 80.6 °F 39.2 °F 23% 30.18 in 10.0 mi ESE 13.8 mph - N/A   Mostly Cloudy
6:07 PM 80.6 °F 39.2 °F 23% 30.16 in 10.0 mi East 13.8 mph - N/A   Mostly Cloudy
6:58 PM 80.6 °F 39.2 °F 23% 30.15 in 10.0 mi East 12.7 mph - N/A   Mostly Cloudy
7:59 PM 77.0 °F 37.4 °F 24% 30.16 in 10.0 mi ESE 6.9 mph - N/A   Mostly Cloudy
8:47 PM 75.2 °F 37.4 °F 25% 30.19 in 10.0 mi ESE 11.5 mph - N/A   Mostly Cloudy
10:05 PM 71.6 °F 39.2 °F 31% 30.22 in 10.0 mi ESE 17.3 mph - N/A   Mostly Cloudy
10:46 PM 69.8 °F 42.8 °F 38% 30.23 in 10.0 mi ESE 20.7 mph - N/A   Mostly Cloudy
11:40 PM 66.2 °F 46.4 °F 49% 30.25 in 10.0 mi SE 9.2 mph - N/A   Mostly Cloudy